KLM14G EHAM-ENVA

Flight info

Callsign KLM14G
Flight time N/A
Altitude 39000
Route ANDIK N873 IFTOC DCT TUSKA DCT EPILO P601 OSGAM DCT NERDO DCT GIMEX M609 BELGU DCT DIGAK DCT VEVOD
Aircraft E170/M-SDE3GILORVW/S

Departure

Time 2026-04-29 12:22
Airport Amsterdam Airport Schiphol (EHAM)

Arrival

Time N/A
Airport Trondheim Airport, Værnes (ENVA)
Time Latitude Longitude Altitude Speed Heading
2026-04-29 11:43 52.30392 4.76157 1 ft 0 kts 58°
2026-04-29 12:03 52.30389 4.76149 2 ft 2 kts 58°
2026-04-29 12:03 52.30381 4.76128 2 ft 2 kts 58°
2026-04-29 12:03 52.30374 4.76107 2 ft 2 kts 82°
2026-04-29 12:03 52.30378 4.76085 3 ft 2 kts 140°
2026-04-29 12:04 52.30387 4.76075 3 ft 0 kts 149°
2026-04-29 12:04 52.30388 4.76075 3 ft 0 kts 149°
2026-04-29 12:08 52.30382 4.76081 3 ft 3 kts 148°
2026-04-29 12:08 52.30355 4.76109 2 ft 6 kts 147°
2026-04-29 12:08 52.30311 4.76159 0 ft 9 kts 144°
2026-04-29 12:08 52.30250 4.76221 -1 ft 10 kts 147°
2026-04-29 12:09 52.30182 4.76229 -2 ft 12 kts 236°
2026-04-29 12:09 52.30136 4.76108 -1 ft 12 kts 238°
2026-04-29 12:09 52.30090 4.75988 0 ft 13 kts 238°
2026-04-29 12:09 52.30038 4.75853 -1 ft 15 kts 238°
2026-04-29 12:10 52.29980 4.75697 -3 ft 16 kts 239°
2026-04-29 12:10 52.29917 4.75533 -1 ft 17 kts 238°
2026-04-29 12:10 52.29852 4.75366 -2 ft 18 kts 237°
2026-04-29 12:10 52.29850 4.75179 0 ft 16 kts 308°
2026-04-29 12:11 52.29926 4.75037 0 ft 16 kts 310°
2026-04-29 12:11 52.30002 4.74896 0 ft 17 kts 311°
2026-04-29 12:11 52.30084 4.74744 -2 ft 18 kts 311°
2026-04-29 12:11 52.30179 4.74570 -7 ft 21 kts 311°
2026-04-29 12:12 52.30284 4.74373 -11 ft 24 kts 311°
2026-04-29 12:12 52.30405 4.74190 -13 ft 22 kts 351°
2026-04-29 12:12 52.30553 4.74203 -12 ft 21 kts
2026-04-29 12:12 52.30698 4.74214 -11 ft 18 kts
2026-04-29 12:13 52.30822 4.74226 -9 ft 17 kts
2026-04-29 12:13 52.30938 4.74239 -7 ft 16 kts
2026-04-29 12:13 52.31047 4.74249 -5 ft 15 kts
2026-04-29 12:13 52.31160 4.74259 -5 ft 16 kts
2026-04-29 12:14 52.31278 4.74269 -5 ft 17 kts
2026-04-29 12:14 52.31398 4.74281 -6 ft 17 kts
2026-04-29 12:14 52.31529 4.74291 -8 ft 19 kts
2026-04-29 12:14 52.31668 4.74306 -9 ft 20 kts
2026-04-29 12:15 52.31813 4.74319 -9 ft 21 kts
2026-04-29 12:15 52.31959 4.74332 -9 ft 16 kts
2026-04-29 12:15 52.32030 4.74248 -9 ft 14 kts 272°
2026-04-29 12:15 52.32037 4.74081 -9 ft 15 kts 274°
2026-04-29 12:16 52.32043 4.73908 -8 ft 14 kts 272°
2026-04-29 12:16 52.32047 4.73745 -5 ft 14 kts 274°
2026-04-29 12:16 52.32054 4.73581 -5 ft 15 kts 273°
2026-04-29 12:16 52.32065 4.73410 -5 ft 15 kts 291°
2026-04-29 12:17 52.32141 4.73282 -7 ft 16 kts 319°
2026-04-29 12:17 52.32233 4.73153 -9 ft 18 kts 320°
2026-04-29 12:17 52.32329 4.73019 -9 ft 18 kts 318°
2026-04-29 12:17 52.32424 4.72884 -9 ft 18 kts 319°
2026-04-29 12:18 52.32518 4.72748 -8 ft 18 kts 320°
2026-04-29 12:18 52.32612 4.72617 -6 ft 17 kts 320°
2026-04-29 12:18 52.32699 4.72484 -5 ft 17 kts 313°
2026-04-29 12:18 52.32778 4.72339 -5 ft 17 kts 313°
2026-04-29 12:19 52.32857 4.72191 -5 ft 17 kts 311°
2026-04-29 12:19 52.32937 4.72042 -6 ft 18 kts 311°
2026-04-29 12:19 52.33024 4.71878 -9 ft 19 kts 312°
2026-04-29 12:19 52.33116 4.71708 -9 ft 20 kts 309°
2026-04-29 12:20 52.33135 4.71498 -9 ft 20 kts 234°
2026-04-29 12:20 52.33030 4.71345 -9 ft 20 kts 223°
2026-04-29 12:20 52.32920 4.71186 -9 ft 21 kts 221°
2026-04-29 12:20 52.32865 4.70986 -9 ft 20 kts 276°
2026-04-29 12:21 52.32963 4.70892 -9 ft 19 kts
2026-04-29 12:21 52.33266 4.70922 -9 ft 77 kts
2026-04-29 12:21 52.34005 4.70991 -8 ft 135 kts
2026-04-29 12:21 52.34975 4.71029 524 ft 136 kts
2026-04-29 12:22 52.35924 4.71103 1027 ft 145 kts 12°
2026-04-29 12:22 52.36957 4.71204 1572 ft 159 kts 12°
2026-04-29 12:22 52.38208 4.71348 1795 ft 198 kts 11°
2026-04-29 12:22 52.39713 4.71516 1988 ft 240 kts
2026-04-29 12:23 52.41394 4.71675 2223 ft 241 kts
2026-04-29 12:23 52.43066 4.71833 2467 ft 248 kts
2026-04-29 12:23 52.44850 4.72007 3247 ft 262 kts
2026-04-29 12:23 52.46648 4.72179 4317 ft 262 kts
2026-04-29 12:24 52.48434 4.72351 5375 ft 261 kts
2026-04-29 12:24 52.50217 4.72524 6384 ft 262 kts
2026-04-29 12:24 52.52045 4.72702 7295 ft 265 kts
2026-04-29 12:24 52.53755 4.73481 8108 ft 259 kts 38°
2026-04-29 12:25 52.54861 4.75678 8883 ft 258 kts 68°
2026-04-29 12:25 52.55465 4.78438 9698 ft 261 kts 71°
2026-04-29 12:25 52.56615 4.84215 11075 ft 275 kts 72°
2026-04-29 12:26 52.57200 4.87245 11588 ft 287 kts 72°
2026-04-29 12:26 52.57809 4.90431 12045 ft 300 kts 72°
2026-04-29 12:26 52.58447 4.93764 12563 ft 309 kts 70°
2026-04-29 12:26 52.59523 4.96773 13191 ft 314 kts 53°
2026-04-29 12:27 52.60873 4.99609 13937 ft 316 kts 52°
2026-04-29 12:27 52.62227 5.02445 14659 ft 317 kts 52°
2026-04-29 12:27 52.63589 5.05296 15349 ft 320 kts 52°
2026-04-29 12:27 52.64950 5.08145 15976 ft 323 kts 52°
2026-04-29 12:28 52.66345 5.11067 16607 ft 326 kts 52°
2026-04-29 12:28 52.67741 5.13996 17258 ft 328 kts 52°
2026-04-29 12:28 52.69155 5.16967 17875 ft 331 kts 52°
2026-04-29 12:28 52.70563 5.19927 18436 ft 335 kts 52°
2026-04-29 12:29 52.72000 5.22952 19050 ft 337 kts 52°
2026-04-29 12:29 52.73447 5.26002 19673 ft 339 kts 52°
2026-04-29 12:29 52.74902 5.29068 20266 ft 341 kts 52°
2026-04-29 12:29 52.76367 5.32158 20844 ft 343 kts 52°
2026-04-29 12:30 52.77818 5.35222 21420 ft 345 kts 52°
2026-04-29 12:30 52.79300 5.38359 21983 ft 347 kts 52°
2026-04-29 12:30 52.80769 5.41476 22531 ft 348 kts 52°
2026-04-29 12:30 52.82254 5.44629 23056 ft 351 kts 52°
2026-04-29 12:31 52.83755 5.47822 23550 ft 353 kts 52°
2026-04-29 12:31 52.85265 5.51037 24071 ft 355 kts 52°
2026-04-29 12:31 52.86769 5.54244 24623 ft 356 kts 52°
2026-04-29 12:31 52.88286 5.57485 25122 ft 358 kts 52°
2026-04-29 12:32 52.89811 5.60744 25582 ft 361 kts 53°
2026-04-29 12:32 52.91342 5.64021 26055 ft 363 kts 53°
2026-04-29 12:32 52.92887 5.67332 26510 ft 366 kts 53°
2026-04-29 12:32 52.94449 5.70685 27012 ft 367 kts 53°
2026-04-29 12:33 52.96011 5.74040 27491 ft 369 kts 53°
2026-04-29 12:33 52.97577 5.77411 27959 ft 371 kts 53°
2026-04-29 12:33 52.99153 5.80805 28364 ft 373 kts 53°
2026-04-29 12:33 53.00779 5.84315 28795 ft 376 kts 53°
2026-04-29 12:34 53.02364 5.87739 29224 ft 377 kts 53°
2026-04-29 12:34 53.03989 5.91255 29631 ft 379 kts 53°
2026-04-29 12:34 53.05590 5.94724 30059 ft 380 kts 53°
2026-04-29 12:34 53.07214 5.98246 30525 ft 380 kts 53°
2026-04-29 12:35 53.08811 6.01716 31088 ft 378 kts 53°
2026-04-29 12:35 53.10388 6.05145 31635 ft 376 kts 53°
2026-04-29 12:35 53.11968 6.08588 32232 ft 373 kts 53°
2026-04-29 12:35 53.13549 6.12039 32763 ft 372 kts 53°
2026-04-29 12:36 53.15103 6.15433 33290 ft 370 kts 53°
2026-04-29 12:36 53.16640 6.18797 33785 ft 368 kts 53°
2026-04-29 12:36 53.18195 6.22203 34263 ft 367 kts 53°
2026-04-29 12:36 53.19726 6.25562 34712 ft 367 kts 53°
2026-04-29 12:37 53.21264 6.28941 35164 ft 365 kts 53°
2026-04-29 12:37 53.22776 6.32266 35519 ft 364 kts 52°
2026-04-29 12:37 53.24307 6.35638 35851 ft 364 kts 52°
2026-04-29 12:37 53.25830 6.38996 36167 ft 364 kts 52°
2026-04-29 12:38 53.27354 6.42362 36466 ft 364 kts 52°
2026-04-29 12:38 53.28857 6.45687 36776 ft 364 kts 52°
2026-04-29 12:38 53.30375 6.49048 37150 ft 364 kts 52°
2026-04-29 12:38 53.31899 6.52426 37509 ft 364 kts 52°
2026-04-29 12:39 53.33425 6.55816 37886 ft 364 kts 51°
2026-04-29 12:39 53.34998 6.59122 38238 ft 364 kts 45°
2026-04-29 12:39 53.36845 6.62033 38593 ft 364 kts 42°
2026-04-29 12:39 53.38691 6.64853 38930 ft 364 kts 42°
2026-04-29 12:40 53.40551 6.67706 39032 ft 360 kts 42°
2026-04-29 12:40 53.44287 6.73454 39076 ft 373 kts 42°
2026-04-29 12:41 53.48165 6.79441 39075 ft 387 kts 42°
2026-04-29 12:41 53.52175 6.85646 39070 ft 397 kts 42°
2026-04-29 12:42 53.56224 6.91926 39073 ft 395 kts 42°
2026-04-29 12:42 53.60407 6.97864 39077 ft 394 kts 40°
2026-04-29 12:43 53.64568 7.03765 39081 ft 395 kts 39°
2026-04-29 12:43 53.68756 7.09729 39063 ft 394 kts 39°
2026-04-29 12:44 53.72922 7.15676 39079 ft 393 kts 39°
2026-04-29 12:44 53.77099 7.21677 39064 ft 394 kts 40°
2026-04-29 12:45 53.81238 7.27663 39082 ft 394 kts 40°
2026-04-29 12:45 53.85425 7.33627 39084 ft 394 kts 35°
2026-04-29 12:46 53.90289 7.37644 39100 ft 395 kts 21°
2026-04-29 12:46 53.95426 7.40817 39090 ft 395 kts 17°
2026-04-29 12:47 54.00842 7.42652 39093 ft 397 kts 13°
2026-04-29 12:47 54.06273 7.44364 39088 ft 397 kts 13°
2026-04-29 12:48 54.11681 7.46077 39101 ft 396 kts 13°
2026-04-29 12:48 54.17065 7.47787 39095 ft 397 kts 13°
2026-04-29 12:49 54.22442 7.49890 39096 ft 396 kts 17°
2026-04-29 12:49 54.27738 7.52424 39097 ft 396 kts 17°
2026-04-29 12:50 54.33030 7.54958 39103 ft 396 kts 17°
2026-04-29 12:50 54.38298 7.57487 39107 ft 396 kts 17°
2026-04-29 12:51 54.43602 7.60039 39105 ft 395 kts 17°
2026-04-29 12:51 54.48901 7.62595 39102 ft 396 kts 17°
2026-04-29 12:52 54.54183 7.65151 39107 ft 396 kts 18°
2026-04-29 12:52 54.59473 7.67717 39108 ft 396 kts 18°
2026-04-29 12:53 54.64765 7.70291 39110 ft 396 kts 18°
2026-04-29 12:53 54.70021 7.72855 39109 ft 396 kts 18°
2026-04-29 12:54 54.75320 7.75447 39111 ft 395 kts 17°
2026-04-29 12:54 54.80594 7.78033 39109 ft 397 kts 17°
2026-04-29 12:55 54.85923 7.80654 39103 ft 397 kts 17°
2026-04-29 12:55 54.91236 7.83273 39097 ft 398 kts 18°
2026-04-29 12:56 54.96518 7.85885 39100 ft 398 kts 17°
2026-04-29 12:56 55.01786 7.88684 39098 ft 395 kts 21°
2026-04-29 12:57 55.06922 7.91996 39104 ft 396 kts 21°
2026-04-29 12:57 55.12086 7.95289 39122 ft 396 kts 21°
2026-04-29 12:58 55.17238 7.98577 39118 ft 397 kts 21°
2026-04-29 12:58 55.22378 8.01868 39119 ft 396 kts 21°
2026-04-29 12:59 55.27546 8.05185 39118 ft 395 kts 21°
2026-04-29 12:59 55.32713 8.08510 39112 ft 396 kts 21°
2026-04-29 13:00 55.37852 8.11827 39110 ft 397 kts 21°
2026-04-29 13:00 55.43043 8.15188 39112 ft 398 kts 21°
2026-04-29 13:01 55.48185 8.18524 39109 ft 397 kts 21°
2026-04-29 13:01 55.53349 8.21886 39108 ft 395 kts 21°
2026-04-29 13:02 55.58498 8.25246 39265 ft 396 kts 21°
2026-04-29 13:02 55.61103 8.26950 38919 ft 396 kts 21°
2026-04-29 13:02 55.63672 8.28633 39167 ft 398 kts 21°
2026-04-29 13:03 55.68818 8.32010 39101 ft 395 kts 20°
2026-04-29 13:03 55.73939 8.35381 39106 ft 396 kts 20°
2026-04-29 13:04 55.79084 8.38777 39103 ft 394 kts 20°
2026-04-29 13:04 55.84227 8.42039 39094 ft 395 kts 16°
2026-04-29 13:05 55.89516 8.44624 39091 ft 396 kts 16°
2026-04-29 13:05 55.94839 8.47305 39082 ft 396 kts 16°
2026-04-29 13:06 56.00133 8.49987 39082 ft 396 kts 16°
2026-04-29 13:06 56.05388 8.52656 39087 ft 397 kts 17°
2026-04-29 13:07 56.10704 8.55366 39087 ft 396 kts 17°
2026-04-29 13:07 56.15983 8.58067 39090 ft 397 kts 16°
2026-04-29 13:08 56.21272 8.60780 39089 ft 396 kts 16°
2026-04-29 13:08 56.26550 8.63495 39091 ft 395 kts 17°
2026-04-29 13:09 56.31858 8.66235 39086 ft 396 kts 17°
2026-04-29 13:09 56.37147 8.68971 39088 ft 396 kts 17°
2026-04-29 13:10 56.42429 8.71712 39086 ft 395 kts 17°
2026-04-29 13:10 56.47728 8.74470 39083 ft 395 kts 17°
2026-04-29 13:11 56.53016 8.77229 39083 ft 396 kts 17°
2026-04-29 13:11 56.58287 8.79989 39083 ft 395 kts 17°
2026-04-29 13:12 56.63563 8.82759 39088 ft 396 kts 17°
2026-04-29 13:12 56.68841 8.85538 39092 ft 396 kts 17°
2026-04-29 13:13 56.74140 8.88230 39095 ft 396 kts 15°
2026-04-29 13:13 56.79465 8.90732 39093 ft 395 kts 15°
2026-04-29 13:14 56.84771 8.93243 39092 ft 395 kts 15°
2026-04-29 13:14 56.90118 8.95781 39092 ft 395 kts 15°
2026-04-29 13:15 56.95406 8.98298 39093 ft 395 kts 15°
2026-04-29 13:15 57.00724 9.00837 39089 ft 395 kts 15°
2026-04-29 13:16 57.06053 9.03389 39090 ft 396 kts 15°
2026-04-29 13:16 57.11372 9.05944 39096 ft 396 kts 15°